Location: Canyon City
(32.5951°N, 116.5278°W)
Time: 23:08:24
(UTC+00:00)

OAO 3 Rocket - Pass Details

Date: 05 December 2024
Orbit: 618 x 666 km, 35.0° (Epoch: 19 January)

Event Time Altitude Azimuth Distance (km) Brightness Sun altitude
Exits shadow 12:41:38 14° 202° (SSW) 1,744 5.3 -23.1°
Maximum altitude 12:44:44 27° 151° (SSE) 1,199 4.9 -22.4°
Drops below altitude 10° 12:48:39 10° 93° (E) 1,989 6.8 -21.6°
Sets 12:51:14 0° 81° (E) 2,890 7.7 -21.1°
